• Join FlightAware (Why Join?)
  • Login
  • US Flag 
07:39AM EST


 

Airport Tracker/Info


-or-


 

Live Flight TrackerFlight Track Log ✈ EJA922 ✈ 22-Jan-2014 ✈ KSWF - KTTN

Flight Track Log - Related Links

Times and Time Zones

All times are in EST time to prevent confusion due to time zone crossing. See the EJA922 flight status page for this flight to view local times or setup timezone preferences in your user account.

Time Position Orientation Groundspeed Altitude Reporting Facility
EST Latitude Longitude Course Direction KTS MPH feet Rate Location/Type
01:22PM 41.4833 -73.9667 225° Southwest 274 315 4,900  Level New York TRACON
01:23PM 41.4333 -74.0333 225° Southwest 273 314 5,000 50 Climbing New York TRACON
01:24PM 41.4833 -74.0833 323° Northwest 229 264 5,000  Level New York TRACON
01:25PM 41.5500 -74.0833 360° North 219 252 5,000 100 Level New York TRACON
01:26PM 41.6167 -74.0833 360° North 227 261 5,200 1,125 Climbing New York TRACON
01:27PM 41.6558 -74.0881 355° North 242 278 6,800 1,080 Climbing Boston Center
01:28PM 41.7094 -74.0236 42° Northeast 260 299 7,000 97 Climbing Boston Center
01:29PM 41.7606 -73.9589 43° Northeast 256 295 7,000 -50 Level Boston Center
01:30PM 41.8136 -73.8936 43° Northeast 244 281 6,900  Descending Boston Center
01:31PM 41.8625 -73.8328 43° Northeast 242 278 7,000  Climbing Boston Center
01:32PM 41.9133 -73.7689 43° Northeast 246 283 6,900  Descending Boston Center
01:32PM 41.9161 -73.7661 37° Northeast 250 288 7,000 250 Climbing Boston Center
01:32PM 41.9506 -73.7200 45° Northeast 250 288 7,100  Climbing Boston Center
01:33PM 41.9633 -73.7069 37° Northeast 246 283 7,000  Descending Boston Center
01:33PM 42.0006 -73.6589 44° Northeast 244 281 7,100  Climbing Boston Center
01:34PM 42.0139 -73.6433 41° Northeast 247 284 7,000  Descending Boston Center
01:35PM 42.0514 -73.5922 45° Northeast 254 292 7,100 -98 Climbing Boston Center
01:35PM 42.0644 -73.5831 28° Northeast 249 287 6,900 -100 Descending Boston Center
01:36PM 42.1142 -73.5900 354° North 237 273 7,000 100 Climbing Boston Center
01:36PM 42.1231 -73.5897 North 242 278 7,000  Level Boston Center
01:37PM 42.1764 -73.6136 342° North 230 265 7,000  Level Boston Center
01:37PM 42.1839 -73.6153 351° North 234 269 7,000 -197 Level Boston Center
01:38PM 42.2406 -73.6378 344° North 237 273 6,800 -295 Descending Boston Center
01:38PM 42.2481 -73.6392 352° North 237 273 6,700 -1,475 Descending Boston Center
01:39PM 42.3083 -73.6661 342° North 235 270 5,300 -1,672 Descending Boston Center
01:39PM 42.3228 -73.6686 353° North 236 272 5,000 -1,377 Descending Boston Center
01:40PM 42.3664 -73.6883 342° North 222 255 3,900 -1,377 Descending Boston Center
01:40PM 42.3817 -73.6928 348° North 222 255 3,600 -1,164 Descending Boston Center
01:41PM 42.4286 -73.7119 343° North 209 241 2,600 -1,279 Descending Boston Center
01:41PM 42.4383 -73.7150 347° North 216 249 2,300 -500 Descending Boston Center
01:42PM 42.4828 -73.7331 343° North 207 238 2,100 -200 Descending Boston Center
01:42PM 42.4922 -73.7364 345° North 201 231 2,100  Level Boston Center
01:43PM 42.5328 -73.7528 343° North 199 229 2,100  Level Boston Center
01:43PM 42.5472 -73.7578 346° North 201 231 2,100  Level Boston Center
01:44PM 42.5889 -73.7744 344° North 211 243 2,100  Level Boston Center
01:44PM 42.6078 -73.7822 343° North 209 241 2,100 -77 Level Boston Center
01:45PM 42.6558 -73.8003 345° North 184 212 2,000 -343 Descending Boston Center
01:46PM 42.6806 -73.8025 356° North 132 152 1,500 -600 Descending Boston Center
01:46PM 42.6942 -73.8019 North 142 163 1,400 -689 Descending Boston Center
01:47PM 42.7169 -73.8031 358° North 116 133 800 -787 Descending Boston Center
01:47PM 42.7283 -73.8033 359° North 129 148 600 -800 Descending Boston Center
01:49PM 42.7333 -73.8000 North  Level FlightAware Approximate
01:56PM 42.7491 -73.8020 North  Level Estimated
01:57PM 42.7491 -73.8020 North  Level Estimated
01:58PM 42.7491 -73.8020 North  Level Estimated